Memphis, TN

5:26 AM CDT on July 22, 2017 (GMT -0500)
Memphis International

Weather History for KMEM - April, 2013

Change the Weather History Date:

Wednesday, April 17, 2013

  Actual Average Record
Temperature  
Mean Temperature 77 °F 63 °F  
Max Temperature 86 °F 74 °F 91 °F (2006)
Min Temperature 68 °F 53 °F 35 °F (1921)
Degree Days  
Heating Degree Days 0 4  
Month to date heating degree days 105 100  
Since 1 July heating degree days 2809 2908  
Cooling Degree Days 12 3  
Month to date cooling degree days 55 33  
Year to date cooling degree days 66 53  
Growing Degree Days 27 (Base 50)    
Moisture  
Dew Point 67 °F    
Average Humidity 69    
Maximum Humidity 90    
Minimum Humidity 48    
Precipitation  
Precipitation 0.00 in 0.20 in 1.61 in (1959)
Month to date precipitation 3.50 3.07  
Year to date precipitation 20.45 16.60  
Snow  
Snow 0.00 in 0.00 in - ()
Month to date snowfall 0.0 0.0  
Since 1 July snowfall 0.9 3.8  
Snow Depth 0.00 in    
Sea Level Pressure  
Sea Level Pressure 29.99 in    
Wind  
Wind Speed 13 mph (South)    
Max Wind Speed 24 mph    
Max Gust Speed 31 mph    
Visibility 10 miles    
Events      
T = Trace of Precipitation, MM = Missing Value Source: NWS Daily Summary

Daily Weather History Graph

Daily Weather History Graph

Search for Another Location

Airport or City:

Trip Planner

Search our weather history database for the weather conditions in past years. The results will help you decide how hot, cold, wet, or windy it might be!

Date:

Astronomy

Apr. 17, 2013 Rise Set
Actual Time 6:25 AM CDT 7:34 PM CDT
Civil Twilight 5:58 AM CDT 8:00 PM CDT
Nautical Twilight 5:27 AM CDT 8:31 PM CDT
Astronomical Twilight 4:55 AM CDT 9:04 PM CDT
Moon 11:43 AM CDT (4/17) 1:07 AM CDT (4/17)
Length of Visible Light 14h 01m
Length of Day
13h 09m
Waxing Crescent, 42% of the Moon is Illuminated
Apr 17
Waxing Crescent
Apr 18
First Quarter
Apr 25
Full
May 2
Last Quarter
May 9
New

Hourly Weather History & Observations

Time (CDT) Temp. Heat Index Dew Point Humidity Pressure Visibility Wind Dir Wind Speed Gust Speed Precip Events Conditions
12:54 AM 73.9 °F - 66.9 °F 79% 30.04 in 10.0 mi SSE 5.8 mph - N/A   Partly Cloudy
1:54 AM 70.0 °F - 66.0 °F 87% 30.04 in 10.0 mi South 5.8 mph - N/A   Clear
2:54 AM 71.1 °F - 66.9 °F 87% 30.02 in 9.0 mi SSE 4.6 mph - N/A   Clear
3:54 AM 72.0 °F - 66.9 °F 84% 30.03 in 9.0 mi South 8.1 mph - N/A   Clear
4:54 AM 70.0 °F - 66.9 °F 90% 30.03 in 9.0 mi South 5.8 mph - N/A   Clear
5:54 AM 68.0 °F - 64.9 °F 90% 30.05 in 9.0 mi South 3.5 mph - N/A   Partly Cloudy
6:54 AM 70.0 °F - 66.9 °F 90% 30.06 in 9.0 mi South 6.9 mph - N/A   Mostly Cloudy
7:54 AM 72.0 °F - 68.0 °F 87% 30.08 in 9.0 mi South 9.2 mph - N/A   Mostly Cloudy
8:54 AM 75.2 °F - 69.8 °F 83% 30.09 in 10.0 mi South 13.8 mph 18.4 mph N/A   Overcast
9:45 AM 75.2 °F - 69.8 °F 83% 30.08 in 10.0 mi SSW 11.5 mph - N/A   Overcast
9:54 AM 75.9 °F - 69.1 °F 79% 30.07 in 10.0 mi SSW 13.8 mph - N/A   Overcast
10:32 AM 78.8 °F - 69.8 °F 74% 30.07 in 10.0 mi SSW 12.7 mph 19.6 mph N/A   Mostly Cloudy
10:54 AM 79.0 °F - 70.0 °F 74% 30.06 in 10.0 mi South 16.1 mph 21.9 mph N/A   Mostly Cloudy
11:20 AM 78.8 °F - 69.8 °F 74% 30.06 in 10.0 mi SSW 12.7 mph 23.0 mph N/A   Mostly Cloudy
11:54 AM 81.0 °F 84.4 °F 70.0 °F 69% 30.04 in 10.0 mi South 16.1 mph 20.7 mph N/A   Mostly Cloudy
12:42 PM 82.4 °F 86.3 °F 69.8 °F 66% 30.03 in 10.0 mi South 16.1 mph 21.9 mph N/A   Mostly Cloudy
12:54 PM 82.0 °F 85.9 °F 70.0 °F 67% 30.02 in 10.0 mi South 17.3 mph - N/A   Mostly Cloudy
1:54 PM 84.0 °F 87.0 °F 68.0 °F 58% 29.99 in 10.0 mi SSW 16.1 mph 25.3 mph N/A   Mostly Cloudy
2:54 PM 84.9 °F 87.6 °F 66.9 °F 55% 29.97 in 10.0 mi South 23.0 mph 27.6 mph N/A   Mostly Cloudy
3:54 PM 86.0 °F 87.6 °F 64.9 °F 49% 29.94 in 10.0 mi South 20.7 mph 28.8 mph N/A   Mostly Cloudy
4:54 PM 84.0 °F 86.3 °F 66.0 °F 55% 29.92 in 10.0 mi South 15.0 mph 24.2 mph N/A   Mostly Cloudy
5:54 PM 82.9 °F 85.4 °F 66.9 °F 58% 29.91 in 10.0 mi South 13.8 mph - N/A   Overcast
6:54 PM 82.0 °F 83.8 °F 64.9 °F 56% 29.89 in 10.0 mi South 10.4 mph 18.4 mph N/A   Scattered Clouds
7:54 PM 80.1 °F 81.9 °F 64.9 °F 60% 29.87 in 10.0 mi SSE 9.2 mph - N/A   Scattered Clouds
8:54 PM 79.0 °F - 64.9 °F 62% 29.87 in 10.0 mi SSE 11.5 mph - N/A   Partly Cloudy
9:54 PM 78.1 °F - 66.0 °F 66% 29.86 in 10.0 mi SSE 16.1 mph 26.5 mph N/A   Clear
10:54 PM 78.1 °F - 66.0 °F 66% 29.86 in 10.0 mi SSE 16.1 mph 24.2 mph N/A   Clear
11:54 PM 77.0 °F - 66.0 °F 69% 29.86 in 10.0 mi South 13.8 mph 23.0 mph N/A   Scattered Clouds